Location: Malvern Link
(52.1333°N, 2.3000°W)
Time: 11:16:14
(UTC+00:00)

Cosmos 1842 - Pass Details

Date: 18 September 2020
Orbit: 521 x 536 km, 82.5° (Epoch: 25 October)

Event Time Altitude Azimuth Distance (km) Brightness Sun altitude
Rises 18:59:59 0° 347° (NNW) 2,666 7.2 -7.5°
Reaches altitude 10° 19:02:09 10° 345° (NNW) 1,772 6.3 -7.8°
Maximum altitude 19:06:00 69° 263° (W) 565 3.6 -8.4°
Drops below altitude 10° 19:09:51 10° 180° (S) 1,758 5.7 -9.0°
Sets 19:11:58 0° 177° (S) 2,643 6.6 -9.3°
